Location: Harbor View
(36.2448°N, 86.5797°W)
Time: 08:52:46
(UTC+00:00)

Cosmos 1812 Rocket - Pass Details

Date: 29 October 2020
Orbit: 605 x 632 km, 82.5° (Epoch: 04 December)

Event Time Altitude Azimuth Distance (km) Brightness Sun altitude
Rises 23:46:30 0° 164° (SSE) 2,891 6.9 -11.4°
Reaches altitude 10° 23:48:52 10° 155° (SSE) 1,985 6.0 -11.9°
Maximum altitude 23:52:50 34° 91° (E) 1,033 4.2 -12.7°
Drops below altitude 10° 23:56:47 10° 27° (NNE) 1,982 5.8 -13.5°
Sets 23:59:09 0° 18° (NNE) 2,887 6.7 -13.9°
